Hourly Data Report for November 17, 2019

All times are specified in Local Standard Time (LST). Add 1 hour to adjust for Daylight Saving Time where and when it is observed.

SATURNA ISLAND CS
BRITISH COLUMBIA
Current Station Operator: ECCC - MSC

48°47'02.067" N
123°02'41.082" W
24.40 m
1017101
71473
WEZ

Download Data

Hourly Data (November 2019)
Hourly Data Report for November 17, 2019
TIME Temp Definition
°C
Dew Point Definition
°C
Rel Hum Definition
%
Wind Dir Definition
10's deg

Wind Spd Definition
km/h
Visibility Definition
km
Stn Press Definition
kPa
Hmdx Definition


Wind Chill Definition


Weather Definition


00:00 10.7 9.0 89 17 28   101.51     LegendNANA
01:00 10.7 9.3 91 18 39   101.40     LegendNANA
02:00 10.8 9.2 90 18 37   101.37     LegendNANA
03:00 11.1 9.1 88 18 46   101.26     LegendNANA
04:00 11.1 9.0 87 18 44   101.21     LegendNANA
05:00 10.7 9.2 90 18 30   101.32     LegendNANA
06:00 10.6 9.4 93 17 36   101.24     LegendNANA
07:00 10.7 9.6 93 17 43   101.15     LegendNANA
08:00 11.0 9.7 92 18 41   101.16     LegendNANA
09:00 11.1 9.8 92 18 32   101.25     LegendNANA
10:00 11.2 10.0 92 19 47   101.21     LegendNANA
11:00 11.4 10.2 93 19 43   101.29     LegendNANA
12:00 13.2 10.0 81 20 41   101.32     LegendNANA
13:00 13.5 10.0 79 21 40   101.37     LegendNANA
14:00 12.7 9.2 79 22 18   101.42     LegendNANA
15:00 11.1 9.1 87 21 26   101.49     LegendNANA
16:00 11.1 9.0 87 23 10   101.62     LegendNANA
17:00 10.5 8.9 90 23 7   101.68     LegendNANA
18:00 10.2 9.2 94 23 5   101.78     LegendNANA
19:00 10.3 9.6 96 20 4   101.84     LegendNANA
20:00 10.1 9.5 96 22 7   101.83     LegendNANA
21:00 10.4 9.6 95 24 10   101.88     LegendNANA
22:00 9.9 9.0 94 24 8   101.85     LegendNANA
23:00 9.9 9.1 95 21 9   101.85     LegendNANA

Notes on Data Quality.

Legend

  • E = Estimated
  • M = Missing
  • NA = Not Available
Date modified: